When you browse on this site, cookies collect data to enhance your experience and personalize the content and advertising you see.
Visit our Privacy Policy to learn more. By continuing to use the site, you agree to this use of cookies and data.
  • In Latvia
  • List of Countries
  • For 7 days
  • Water Temperature
  • Satellite Maps
  • Weather Map
  • Weather Widgets
  • user-avatar
    Login

    Hourly Weather Sarata-Galbena

    Today, 25 March, Monday

    Time Temperature Precipitation Wind Pressure Humidity
    00:00 +11°C° 0 mm 1 mps 754 mmHg 74%
    01:00 +11°C° 0 mm 1 mps 753 mmHg 74%
    02:00 +10°C° 0 mm 1 mps 753 mmHg 73%
    03:00 +10°C° 0 mm 1 mps 752 mmHg 73%
    04:00 +9°C° 0 mm 1 mps 752 mmHg 73%
    05:00 +8°C° 0 mm 0 mps 751 mmHg 74%
    06:00 +10°C° 0 mm 1 mps 751 mmHg 71%
    07:00 +10°C° 0 mm 2 mps 751 mmHg 68%
    08:00 +12°C° 0 mm 2 mps 750 mmHg 65%
    09:00 +13°C° 0 mm 4 mps 750 mmHg 60%
    10:00 +14°C° 0 mm 5 mps 749 mmHg 55%
    11:00 +16°C° 0 mm 6 mps 749 mmHg 49%
    12:00 +17°C° 0.1 mm 6 mps 748 mmHg 45%
    13:00 +18°C° 0.1 mm 7 mps 747 mmHg 42%
    14:00 +20°C° 0.1 mm 7 mps 747 mmHg 38%
    15:00 +20°C° 0 mm 6 mps 746 mmHg 40%
    16:00 +19°C° 0 mm 5 mps 746 mmHg 42%
    17:00 +19°C° 0 mm 3 mps 746 mmHg 44%
    18:00 +17°C° 0.1 mm 3 mps 746 mmHg 51%
    19:00 +14°C° 0.1 mm 3 mps 746 mmHg 59%
    20:00 +13°C° 0.1 mm 3 mps 747 mmHg 67%
    21:00 +12°C° 0 mm 3 mps 747 mmHg 74%
    22:00 +11°C° 0 mm 3 mps 747 mmHg 81%
    23:00 +10°C° 0 mm 3 mps 748 mmHg 87%

    Tomorrow, 26 March, Tuesday

    Time Temperature Precipitation Wind Pressure Humidity
    00:00 +9°C° 0 mm 3 mps 748 mmHg 85%
    01:00 +8°C° 0 mm 4 mps 748 mmHg 84%
    02:00 +8°C° 0 mm 4 mps 749 mmHg 82%
    03:00 +8°C° 0 mm 3 mps 749 mmHg 81%
    04:00 +7°C° 0 mm 3 mps 749 mmHg 81%
    05:00 +7°C° 0 mm 2 mps 749 mmHg 80%
    06:00 +7°C° 0 mm 3 mps 750 mmHg 76%
    07:00 +7°C° 0 mm 3 mps 750 mmHg 72%
    08:00 +8°C° 0 mm 3 mps 751 mmHg 67%
    09:00 +8°C° 0 mm 4 mps 751 mmHg 64%
    10:00 +9°C° 0 mm 5 mps 752 mmHg 61%
    11:00 +10°C° 0 mm 6 mps 752 mmHg 57%
    12:00 +10°C° 0 mm 6 mps 752 mmHg 54%
    13:00 +10°C° 0 mm 6 mps 752 mmHg 51%
    14:00 +11°C° 0 mm 6 mps 752 mmHg 48%
    15:00 +11°C° 0 mm 6 mps 752 mmHg 46%
    16:00 +10°C° 0 mm 5 mps 752 mmHg 44%
    17:00 +10°C° 0 mm 5 mps 752 mmHg 43%
    18:00 +10°C° 0 mm 4 mps 753 mmHg 46%
    19:00 +8°C° 0 mm 4 mps 753 mmHg 49%
    20:00 +8°C° 0 mm 3 mps 754 mmHg 52%
    21:00 +8°C° 0 mm 3 mps 754 mmHg 53%
    22:00 +7°C° 0 mm 3 mps 754 mmHg 55%
    23:00 +5°C° 0 mm 3 mps 754 mmHg 57%

    Day after tomorrow, 27 March, Wednesday

    Time Temperature Precipitation Wind Pressure Humidity
    00:00 +6°C° 0 mm 2 mps 754 mmHg 59%
    01:00 +5°C° 0 mm 2 mps 754 mmHg 61%
    02:00 +5°C° 0 mm 2 mps 754 mmHg 64%
    03:00 +4°C° 0.1 mm 3 mps 754 mmHg 63%
    04:00 +4°C° 0.1 mm 3 mps 755 mmHg 62%
    05:00 +4°C° 0.1 mm 4 mps 755 mmHg 61%
    06:00 +2°C° 0.1 mm 6 mps 755 mmHg 54%
    07:00 +2°C° 0.1 mm 7 mps 756 mmHg 46%
    08:00 +1°C° 0.1 mm 9 mps 756 mmHg 39%
    09:00 +2°C° 0 mm 9 mps 757 mmHg 42%
    10:00 +2°C° 0 mm 9 mps 757 mmHg 44%
    11:00 +3°C° 0 mm 9 mps 758 mmHg 47%
    12:00 +5°C° 0 mm 9 mps 758 mmHg 45%
    13:00 +5°C° 0 mm 9 mps 758 mmHg 44%
    14:00 +6°C° 0 mm 9 mps 758 mmHg 42%
    15:00 +6°C° 0 mm 8 mps 759 mmHg 41%
    16:00 +6°C° 0 mm 7 mps 759 mmHg 40%
    17:00 +6°C° 0 mm 7 mps 759 mmHg 39%
    18:00 +5°C° 0 mm 6 mps 759 mmHg 43%
    19:00 +5°C° 0 mm 4 mps 760 mmHg 47%
    20:00 +4°C° 0 mm 3 mps 760 mmHg 50%
    21:00 +3°C° 0 mm 3 mps 761 mmHg 53%
    22:00 +4°C° 0 mm 2 mps 761 mmHg 55%
    23:00 +3°C° 0 mm 2 mps 761 mmHg 58%

    28 March, Thursday

    Time Temperature Precipitation Wind Pressure Humidity
    00:00 +3°C° 0 mm 2 mps 762 mmHg 60%
    01:00 +3°C° 0 mm 2 mps 762 mmHg 61%
    02:00 +2°C° 0 mm 2 mps 762 mmHg 63%
    03:00 +2°C° 0 mm 2 mps 762 mmHg 66%
    04:00 +2°C° 0 mm 2 mps 762 mmHg 68%
    05:00 +1°C° 0 mm 2 mps 762 mmHg 71%
    06:00 +1°C° 0 mm 3 mps 762 mmHg 66%
    07:00 +2°C° 0 mm 3 mps 763 mmHg 62%
    08:00 +3°C° 0 mm 3 mps 763 mmHg 58%
    09:00 +4°C° 0 mm 4 mps 763 mmHg 50%
    10:00 +5°C° 0 mm 4 mps 763 mmHg 42%
    11:00 +6°C° 0 mm 5 mps 764 mmHg 33%
    12:00 +6°C° 0 mm 5 mps 763 mmHg 31%
    13:00 +7°C° 0 mm 5 mps 763 mmHg 29%
    14:00 +7°C° 0 mm 5 mps 763 mmHg 27%
    15:00 +7°C° 0 mm 5 mps 763 mmHg 28%
    16:00 +7°C° 0 mm 4 mps 763 mmHg 28%
    17:00 +7°C° 0 mm 4 mps 763 mmHg 29%
    18:00 +6°C° 0 mm 4 mps 764 mmHg 33%
    19:00 +5°C° 0 mm 3 mps 764 mmHg 38%
    20:00 +5°C° 0 mm 2 mps 764 mmHg 42%
    21:00 +4°C° 0 mm 2 mps 765 mmHg 45%
    22:00 +4°C° 0 mm 2 mps 765 mmHg 47%
    23:00 +4°C° 0 mm 1 mps 765 mmHg 50%

    29 March, Friday

    Time Temperature Precipitation Wind Pressure Humidity
    00:00 +4°C° 0 mm 1 mps 766 mmHg 51%
    01:00 +3°C° 0 mm 1 mps 766 mmHg 53%
    02:00 +3°C° 0 mm 1 mps 766 mmHg 54%
    03:00 +3°C° 0 mm 1 mps 766 mmHg 54%
    04:00 +2°C° 0 mm 1 mps 766 mmHg 55%
    05:00 +2°C° 0 mm 1 mps 766 mmHg 55%
    06:00 +3°C° 0 mm 1 mps 766 mmHg 52%
    07:00 +4°C° 0 mm 1 mps 766 mmHg 48%
    08:00 +4°C° 0 mm 2 mps 766 mmHg 44%
    09:00 +6°C° 0 mm 2 mps 765 mmHg 40%
    10:00 +7°C° 0 mm 3 mps 765 mmHg 36%
    11:00 +7°C° 0 mm 4 mps 765 mmHg 31%
    12:00 +8°C° 0 mm 4 mps 764 mmHg 31%
    13:00 +9°C° 0 mm 5 mps 764 mmHg 30%
    14:00 +10°C° 0 mm 5 mps 763 mmHg 29%
    15:00 +10°C° 0 mm 5 mps 763 mmHg 32%
    16:00 +10°C° 0 mm 5 mps 762 mmHg 34%
    17:00 +10°C° 0 mm 5 mps 761 mmHg 36%
    18:00 +9°C° 0 mm 5 mps 761 mmHg 42%
    19:00 +8°C° 0 mm 4 mps 761 mmHg 47%
    20:00 +8°C° 0 mm 3 mps 761 mmHg 53%
    21:00 +7°C° 0 mm 3 mps 761 mmHg 56%
    22:00 +6°C° 0 mm 4 mps 761 mmHg 59%
    23:00 +6°C° 0 mm 4 mps 761 mmHg 62%

    30 March, Saturday

    Time Temperature Precipitation Wind Pressure Humidity
    00:00 +6°C° 0 mm 4 mps 760 mmHg 66%
    01:00 +6°C° 0 mm 4 mps 760 mmHg 71%
    02:00 +5°C° 0 mm 5 mps 760 mmHg 75%
    03:00 +5°C° 0 mm 5 mps 760 mmHg 78%
    04:00 +5°C° 0 mm 5 mps 760 mmHg 81%
    05:00 +5°C° 0 mm 5 mps 760 mmHg 84%
    06:00 +5°C° 0 mm 5 mps 760 mmHg 81%
    07:00 +6°C° 0 mm 5 mps 760 mmHg 77%
    08:00 +7°C° 0 mm 5 mps 760 mmHg 74%
    09:00 +8°C° 0 mm 5 mps 760 mmHg 68%
    10:00 +10°C° 0 mm 5 mps 760 mmHg 62%
    11:00 +13°C° 0 mm 5 mps 760 mmHg 56%
    12:00 +13°C° 0 mm 5 mps 759 mmHg 53%
    13:00 +14°C° 0 mm 5 mps 759 mmHg 49%
    14:00 +15°C° 0 mm 5 mps 759 mmHg 45%
    15:00 +15°C° 0 mm 5 mps 758 mmHg 47%
    16:00 +14°C° 0 mm 5 mps 758 mmHg 49%
    17:00 +14°C° 0 mm 5 mps 758 mmHg 50%
    18:00 +13°C° 0 mm 4 mps 758 mmHg 56%
    19:00 +12°C° 0 mm 3 mps 758 mmHg 61%
    20:00 +12°C° 0 mm 2 mps 758 mmHg 66%
    21:00 +12°C° 0 mm 2 mps 757 mmHg 68%
    22:00 +10°C° 0 mm 2 mps 757 mmHg 70%
    23:00 +10°C° 0 mm 1 mps 757 mmHg 73%
    Show more